Time,TemperatureF,DewpointF,PressureIn,WindDirection,WindDirectionDegrees,WindSpeedMPH,WindSpeedGustMPH,Humidity,HourlyPrecipIn,Conditions,Clouds,dailyrainin,SoftwareType,DateUTC
2013-11-21 00:02:00,82.2,75.4,29.93,East,87,11.5,11.5,80,0.00,CLR,,0.00,WeatherDisplay:10.37,2013-11-21 06:02:00,
2013-11-21 00:07:00,82.3,75.9,29.93,East,81,10.4,10.4,81,0.00,CLR,,0.00,WeatherDisplay:10.37,2013-11-21 06:07:00,
2013-11-21 00:12:00,82.2,75.4,29.93,East,86,11.5,11.5,80,0.00,CLR,,0.00,WeatherDisplay:10.37,2013-11-21 06:12:00,
2013-11-21 00:17:00,82.3,75.9,29.93,East,81,11.5,11.5,81,0.00,CLR,,0.00,WeatherDisplay:10.37,2013-11-21 06:17:00,
2013-11-21 00:22:00,82.3,75.9,29.93,East,87,11.5,11.5,81,0.00,CLR,,0.00,WeatherDisplay:10.37,2013-11-21 06:22:00,
2013-11-21 00:27:00,82.2,75.0,29.93,East,89,11.5,11.5,79,0.00,CLR,,0.00,WeatherDisplay:10.37,2013-11-21 06:27:00,
2013-11-21 00:32:00,82.3,75.5,29.92,East,87,10.4,10.4,80,0.00,CLR,,0.00,WeatherDisplay:10.37,2013-11-21 06:32:00,
2013-11-21 00:37:00,82.3,75.5,29.92,East,84,11.5,11.5,80,0.00,CLR,,0.00,WeatherDisplay:10.37,2013-11-21 06:37:00,
2013-11-21 00:42:00,82.3,75.9,29.92,ENE,75,11.5,11.5,81,0.00,CLR,,0.00,WeatherDisplay:10.37,2013-11-21 06:42:00,
2013-11-21 00:47:00,82.3,75.5,29.92,East,84,11.5,11.5,80,0.00,CLR,,0.00,WeatherDisplay:10.37,2013-11-21 06:47:00,
2013-11-21 00:52:00,82.3,75.9,29.93,East,82,10.4,10.4,81,0.00,CLR,,0.00,WeatherDisplay:10.37,2013-11-21 06:52:00,
2013-11-21 00:57:00,82.3,76.3,29.92,ENE,75,10.4,10.4,82,0.00,CLR,,0.00,WeatherDisplay:10.37,2013-11-21 06:57:00,
2013-11-21 01:02:00,82.2,75.8,29.93,ENE,71,11.5,11.5,81,0.00,CLR,,0.00,WeatherDisplay:10.37,2013-11-21 07:02:00,
2013-11-21 01:07:00,82.3,76.3,29.92,ENE,76,9.0,9.0,82,0.00,CLR,,0.00,WeatherDisplay:10.37,2013-11-21 07:07:00,
2013-11-21 01:12:00,82.1,75.7,29.92,ENE,74,9.2,9.2,81,0.00,CLR,,0.00,WeatherDisplay:10.37,2013-11-21 07:12:00,
2013-11-21 01:17:00,82.1,76.1,29.92,ENE,71,9.2,9.2,82,0.00,CLR,,0.00,WeatherDisplay:10.37,2013-11-21 07:17:00,
2013-11-21 01:22:00,82.3,76.3,29.92,ENE,72,10.4,10.4,82,0.00,CLR,,0.00,WeatherDisplay:10.37,2013-11-21 07:22:00,
2013-11-21 01:27:00,82.1,75.7,29.92,ENE,63,11.5,11.5,81,0.00,CLR,,0.00,WeatherDisplay:10.37,2013-11-21 07:27:00,
2013-11-21 01:32:00,82.1,75.7,29.92,ENE,59,9.2,9.2,81,0.00,CLR,,0.00,WeatherDisplay:10.37,2013-11-21 07:32:00,
2013-11-21 01:37:00,82.1,75.7,29.92,ENE,66,10.4,10.4,81,0.00,CLR,,0.00,WeatherDisplay:10.37,2013-11-21 07:37:00,
2013-11-21 01:42:00,82.1,76.1,29.92,ENE,63,10.4,10.4,82,0.00,CLR,,0.00,WeatherDisplay:10.37,2013-11-21 07:42:00,
2013-11-21 01:47:00,82.2,75.8,29.92,ENE,75,9.2,9.2,81,0.00,CLR,,0.00,WeatherDisplay:10.37,2013-11-21 07:47:00,
2013-11-21 01:52:00,82.1,75.7,29.92,ENE,73,10.4,10.4,81,0.00,CLR,,0.00,WeatherDisplay:10.37,2013-11-21 07:52:00,
2013-11-21 01:57:00,82.2,75.8,29.92,ENE,68,9.2,9.2,81,0.00,CLR,,0.00,WeatherDisplay:10.37,2013-11-21 07:57:00,
2013-11-21 02:02:00,82.1,75.7,29.92,ENE,71,10.4,10.4,81,0.00,CLR,,0.00,WeatherDisplay:10.37,2013-11-21 08:02:00,
2013-11-21 02:07:00,82.1,75.7,29.92,East,83,8.1,8.1,81,0.00,CLR,,0.00,WeatherDisplay:10.37,2013-11-21 08:07:00,
2013-11-21 02:12:00,82.2,75.8,29.92,NE,54,9.2,9.2,81,0.00,CLR,,0.00,WeatherDisplay:10.37,2013-11-21 08:12:00,
2013-11-21 02:17:00,82.2,75.4,29.92,ENE,61,8.1,8.1,80,0.00,CLR,,0.00,WeatherDisplay:10.37,2013-11-21 08:17:00,
2013-11-21 02:22:00,82.2,75.0,29.92,East,79,9.2,9.2,79,0.00,CLR,,0.00,WeatherDisplay:10.37,2013-11-21 08:22:00,
2013-11-21 02:27:00,82.3,75.1,29.92,East,79,8.1,8.1,79,0.00,CLR,,0.00,WeatherDisplay:10.37,2013-11-21 08:27:00,
2013-11-21 02:32:00,82.3,75.5,29.92,ENE,77,9.2,9.2,80,0.00,CLR,,0.00,WeatherDisplay:10.37,2013-11-21 08:32:00,
2013-11-21 02:37:00,82.3,75.5,29.92,East,80,9.2,9.2,80,0.00,CLR,,0.00,WeatherDisplay:10.37,2013-11-21 08:37:00,
2013-11-21 02:42:00,82.2,75.4,29.92,ENE,65,8.1,8.1,80,0.00,CLR,,0.00,WeatherDisplay:10.37,2013-11-21 08:42:00,
2013-11-21 02:47:00,82.1,75.3,29.92,ENE,75,7.0,7.0,80,0.00,CLR,,0.00,WeatherDisplay:10.37,2013-11-21 08:47:00,
2013-11-21 02:52:00,82.1,75.3,29.92,East,79,10.4,10.4,80,0.00,CLR,,0.00,WeatherDisplay:10.37,2013-11-21 08:52:00,
2013-11-21 02:57:00,82.2,75.4,29.92,ENE,70,8.1,8.1,80,0.00,CLR,,0.00,WeatherDisplay:10.37,2013-11-21 08:57:00,
2013-11-21 03:02:00,82.2,75.8,29.92,ENE,69,9.2,9.2,81,0.00,CLR,,0.00,WeatherDisplay:10.37,2013-11-21 09:02:00,
2013-11-21 03:07:00,82.4,76.0,29.92,East,83,9.0,9.0,81,0.00,CLR,,0.00,WeatherDisplay:10.37,2013-11-21 09:07:00,
2013-11-21 03:12:00,82.1,76.8,29.92,East,90,11.5,11.5,84,0.00,CLR,,0.00,WeatherDisplay:10.37,2013-11-21 09:12:00,
2013-11-21 03:17:00,81.9,76.6,29.92,East,82,11.5,11.5,84,0.00,CLR,,0.00,WeatherDisplay:10.37,2013-11-21 09:17:00,
2013-11-21 03:22:00,81.8,76.5,29.92,East,92,10.4,10.4,84,0.00,CLR,,0.00,WeatherDisplay:10.37,2013-11-21 09:22:00,
2013-11-21 03:27:00,81.9,76.6,29.93,East,87,10.4,10.4,84,0.00,CLR,,0.00,WeatherDisplay:10.37,2013-11-21 09:27:00,
2013-11-21 03:32:00,82.0,76.7,29.92,East,80,9.0,9.0,84,0.00,CLR,,0.00,WeatherDisplay:10.37,2013-11-21 09:32:00,
2013-11-21 03:37:00,82.0,76.7,29.92,East,80,10.4,10.4,84,0.00,CLR,,0.00,WeatherDisplay:10.37,2013-11-21 09:37:00,
2013-11-21 03:42:00,82.0,76.3,29.92,East,79,10.4,10.4,83,0.00,CLR,,0.00,WeatherDisplay:10.37,2013-11-21 09:42:00,
2013-11-21 03:47:00,82.1,76.8,29.92,East,79,8.1,8.1,84,0.00,CLR,,0.00,WeatherDisplay:10.37,2013-11-21 09:47:00,
2013-11-21 03:52:00,82.0,77.0,29.92,East,79,6.9,6.9,85,0.00,CLR,,0.00,WeatherDisplay:10.37,2013-11-21 09:52:00,
2013-11-21 03:57:00,81.9,76.6,29.92,ENE,67,8.1,8.1,84,0.00,CLR,,0.00,WeatherDisplay:10.37,2013-11-21 09:57:00,
2013-11-21 04:02:00,82.0,76.7,29.92,ENE,77,8.0,8.0,84,0.00,CLR,,0.00,WeatherDisplay:10.37,2013-11-21 10:02:00,
2013-11-21 04:07:00,81.9,76.6,29.92,NE,53,10.4,10.4,84,0.00,CLR,,0.00,WeatherDisplay:10.37,2013-11-21 10:07:00,
2013-11-21 04:12:00,81.9,76.9,29.92,ENE,73,10.4,10.4,85,0.00,CLR,,0.00,WeatherDisplay:10.37,2013-11-21 10:12:00,
2013-11-21 04:17:00,82.0,77.0,29.92,ENE,77,9.2,9.2,85,0.00,CLR,,0.00,WeatherDisplay:10.37,2013-11-21 10:17:00,
2013-11-21 04:22:00,82.0,77.0,29.93,ENE,72,11.5,11.5,85,0.00,CLR,,0.00,WeatherDisplay:10.37,2013-11-21 10:22:00,
2013-11-21 04:27:00,82.0,76.3,29.93,ENE,75,10.4,10.4,83,0.00,CLR,,0.00,WeatherDisplay:10.37,2013-11-21 10:27:00,
2013-11-21 04:32:00,82.2,76.5,29.93,ENE,74,9.2,9.2,83,0.00,CLR,,0.00,WeatherDisplay:10.37,2013-11-21 10:32:00,
2013-11-21 04:37:00,82.1,76.1,29.93,ENE,76,11.5,11.5,82,0.00,CLR,,0.00,WeatherDisplay:10.37,2013-11-21 10:37:00,
2013-11-21 04:42:00,82.3,76.3,29.93,ENE,71,11.5,11.5,82,0.00,CLR,,0.00,WeatherDisplay:10.37,2013-11-21 10:42:00,
2013-11-21 04:47:00,82.2,75.8,29.92,ENE,77,11.5,11.5,81,0.00,CLR,,0.00,WeatherDisplay:10.37,2013-11-21 10:47:00,
2013-11-21 04:53:00,82.2,76.2,29.92,ENE,71,11.5,11.5,82,0.00,CLR,,0.00,WeatherDisplay:10.37,2013-11-21 10:53:00,
2013-11-21 04:58:00,82.2,76.2,29.92,ENE,71,10.4,10.5,82,0.00,CLR,,0.00,WeatherDisplay:10.37,2013-11-21 10:58:00,
2013-11-21 05:03:00,82.3,76.3,29.93,ENE,69,10.4,10.4,82,0.00,CLR,,0.00,WeatherDisplay:10.37,2013-11-21 11:03:00,
2013-11-21 05:08:00,82.2,75.8,29.93,ENE,74,11.5,11.5,81,0.00,CLR,,0.00,WeatherDisplay:10.37,2013-11-21 11:08:00,
2013-11-21 05:13:00,82.3,75.9,29.93,NE,56,12.7,12.7,81,0.00,CLR,,0.00,WeatherDisplay:10.37,2013-11-21 11:13:00,
2013-11-21 05:18:00,82.3,76.3,29.93,ENE,69,9.2,9.2,82,0.00,CLR,,0.00,WeatherDisplay:10.37,2013-11-21 11:18:00,
2013-11-21 05:23:00,82.3,75.9,29.93,ENE,73,11.5,11.5,81,0.00,CLR,,0.00,WeatherDisplay:10.37,2013-11-21 11:23:00,
2013-11-21 05:28:00,82.3,75.9,29.93,ENE,59,11.5,11.5,81,0.00,CLR,,0.00,WeatherDisplay:10.37,2013-11-21 11:28:00,
2013-11-21 05:33:00,81.8,75.4,29.93,NNE,29,11.5,11.5,81,0.00,CLR,,0.00,WeatherDisplay:10.37,2013-11-21 11:33:00,
2013-11-21 05:38:00,81.3,75.3,29.93,NNE,27,5.8,5.8,82,0.00,CLR,,0.00,WeatherDisplay:10.37,2013-11-21 11:38:00,
2013-11-21 05:43:00,81.0,75.0,29.94,NNE,16,10.4,10.4,82,0.00,CLR,,0.00,WeatherDisplay:10.37,2013-11-21 11:43:00,
2013-11-21 05:48:00,80.9,75.2,29.93,NNE,23,6.9,6.9,83,0.00,CLR,,0.00,WeatherDisplay:10.37,2013-11-21 11:48:00,
2013-11-21 05:53:00,80.8,75.5,29.94,NE,46,5.8,5.8,84,0.00,CLR,,0.00,WeatherDisplay:10.37,2013-11-21 11:53:00,
2013-11-21 05:58:00,80.9,75.6,29.94,NNE,31,5.8,5.8,84,0.00,CLR,,0.00,WeatherDisplay:10.37,2013-11-21 11:58:00,
2013-11-21 06:03:00,80.9,75.6,29.94,NE,41,6.9,6.9,84,0.00,CLR,,0.00,WeatherDisplay:10.37,2013-11-21 12:03:00,
2013-11-21 06:08:00,81.1,75.8,29.94,ENE,69,6.9,6.9,84,0.00,CLR,,0.00,WeatherDisplay:10.37,2013-11-21 12:08:00,
2013-11-21 06:13:00,81.7,76.0,29.94,ENE,64,11.5,11.5,83,0.00,CLR,,0.00,WeatherDisplay:10.37,2013-11-21 12:13:00,
2013-11-21 06:18:00,82.2,76.2,29.94,NE,55,10.4,10.4,82,0.00,CLR,,0.00,WeatherDisplay:10.37,2013-11-21 12:18:00,
2013-11-21 06:23:00,82.4,76.3,29.94,ENE,63,11.5,11.5,82,0.00,CLR,,0.00,WeatherDisplay:10.37,2013-11-21 12:23:00,
2013-11-21 06:28:00,82.4,76.3,29.95,ENE,62,11.5,11.5,82,0.00,CLR,,0.00,WeatherDisplay:10.37,2013-11-21 12:28:00,
2013-11-21 06:33:00,82.2,77.2,29.95,East,81,18.4,18.4,85,0.00,,,0.00,WeatherDisplay:10.37,2013-11-21 12:33:00,
2013-11-21 06:38:00,81.8,77.2,29.95,ENE,71,19.6,19.6,86,0.00,CLR,,0.00,WeatherDisplay:10.37,2013-11-21 12:38:00,
2013-11-21 06:43:00,82.0,77.0,29.95,East,86,19.6,19.6,85,0.01,RA,,0.01,WeatherDisplay:10.37,2013-11-21 12:43:00,
2013-11-21 06:48:00,81.9,77.3,29.96,East,87,16.1,16.1,86,0.01,RA,,0.01,WeatherDisplay:10.37,2013-11-21 12:48:00,
2013-11-21 06:53:00,81.8,77.5,29.95,East,83,16.1,16.1,87,0.01,CLR,,0.01,WeatherDisplay:10.37,2013-11-21 12:53:00,
2013-11-21 06:58:00,81.8,76.8,29.96,East,81,16.1,16.1,85,0.01,CLR,,0.01,WeatherDisplay:10.37,2013-11-21 12:58:00,
2013-11-21 07:03:00,81.9,76.6,29.96,ENE,77,13.8,13.8,84,0.01,CLR,,0.01,WeatherDisplay:10.37,2013-11-21 13:03:00,
2013-11-21 07:08:00,81.7,76.4,29.96,East,96,16.1,16.1,84,0.01,CLR,,0.01,WeatherDisplay:10.37,2013-11-21 13:08:00,
2013-11-21 07:13:00,81.7,76.4,29.96,East,96,18.4,18.4,84,0.01,CLR,,0.01,WeatherDisplay:10.37,2013-11-21 13:13:00,
2013-11-21 07:18:00,81.2,75.9,29.96,East,93,17.3,17.3,84,0.01,,,0.01,WeatherDisplay:10.37,2013-11-21 13:18:00,
2013-11-21 07:23:00,81.3,76.0,29.96,East,84,17.3,17.3,84,0.01,CLR,,0.01,WeatherDisplay:10.37,2013-11-21 13:23:00,
2013-11-21 07:28:00,81.2,75.5,29.96,East,81,13.0,13.0,83,0.01,CLR,,0.01,WeatherDisplay:10.37,2013-11-21 13:28:00,
2013-11-21 07:33:00,81.5,75.1,29.96,East,82,13.8,13.8,81,0.01,CLR,,0.01,WeatherDisplay:10.37,2013-11-21 13:33:00,
2013-11-21 07:38:00,82.0,75.2,29.97,East,82,13.8,13.8,80,0.01,CLR,,0.01,WeatherDisplay:10.37,2013-11-21 13:38:00,
2013-11-21 07:43:00,82.1,76.1,29.97,East,94,13.8,13.8,82,0.00,CLR,,0.01,WeatherDisplay:10.37,2013-11-21 13:43:00,
2013-11-21 07:48:00,82.1,76.4,29.97,East,89,13.8,13.8,83,0.00,CLR,,0.01,WeatherDisplay:10.37,2013-11-21 13:48:00,
2013-11-21 07:53:00,82.1,76.4,29.97,East,90,12.0,12.0,83,0.00,CLR,,0.01,WeatherDisplay:10.37,2013-11-21 13:53:00,
2013-11-21 07:58:00,82.2,76.5,29.98,East,84,11.5,11.5,83,0.00,CLR,,0.01,WeatherDisplay:10.37,2013-11-21 13:58:00,
2013-11-21 08:03:00,82.2,76.9,29.98,East,86,11.5,11.5,84,0.00,CLR,,0.01,WeatherDisplay:10.37,2013-11-21 14:03:00,
2013-11-21 08:08:00,82.3,77.3,29.98,East,91,12.7,12.7,85,0.00,CLR,,0.01,WeatherDisplay:10.37,2013-11-21 14:08:00,
2013-11-21 08:13:00,82.2,76.9,29.98,East,90,11.5,11.5,84,0.00,CLR,,0.01,WeatherDisplay:10.37,2013-11-21 14:13:00,
2013-11-21 08:18:00,82.3,77.3,29.99,East,95,14.0,14.0,85,0.00,CLR,,0.01,WeatherDisplay:10.37,2013-11-21 14:18:00,
2013-11-21 08:23:00,81.8,76.5,29.99,ESE,107,19.6,19.6,84,0.00,,,0.01,WeatherDisplay:10.37,2013-11-21 14:23:00,
2013-11-21 08:28:00,81.5,76.6,30.00,ESE,112,17.3,17.3,85,0.00,CLR,,0.01,WeatherDisplay:10.37,2013-11-21 14:28:00,
2013-11-21 08:33:00,81.3,76.0,29.99,ESE,106,13.8,13.8,84,0.00,CLR,,0.01,WeatherDisplay:10.37,2013-11-21 14:33:00,
2013-11-21 08:38:00,81.8,75.4,29.99,East,98,15.0,15.0,81,0.00,CLR,,0.01,WeatherDisplay:10.37,2013-11-21 14:38:00,
2013-11-21 08:43:00,82.4,76.0,30.00,East,100,14.0,14.0,81,0.00,CLR,,0.01,WeatherDisplay:10.37,2013-11-21 14:43:00,
2013-11-21 08:48:00,82.5,76.4,29.99,ESE,103,14.0,14.0,82,0.00,CLR,,0.01,WeatherDisplay:10.37,2013-11-21 14:48:00,
2013-11-21 08:53:00,82.5,76.4,30.00,East,98,17.3,17.3,82,0.00,CLR,,0.01,WeatherDisplay:10.37,2013-11-21 14:53:00,
2013-11-21 08:58:00,82.7,76.6,30.00,ESE,105,15.0,15.0,82,0.00,CLR,,0.01,WeatherDisplay:10.37,2013-11-21 14:58:00,
2013-11-21 09:03:00,82.7,77.0,30.00,East,98,15.0,15.0,83,0.00,CLR,,0.01,WeatherDisplay:10.37,2013-11-21 15:03:00,
2013-11-21 09:08:00,82.7,77.0,30.00,ESE,108,13.8,13.8,83,0.00,CLR,,0.01,WeatherDisplay:10.37,2013-11-21 15:08:00,
2013-11-21 09:13:00,82.7,76.6,30.00,ESE,108,18.4,18.4,82,0.00,CLR,,0.01,WeatherDisplay:10.37,2013-11-21 15:13:00,
2013-11-21 09:18:00,82.8,76.7,30.00,ESE,102,17.3,17.3,82,0.00,CLR,,0.01,WeatherDisplay:10.37,2013-11-21 15:18:00,
2013-11-21 09:23:00,82.9,77.2,30.00,ESE,106,17.3,17.3,83,0.00,CLR,,0.01,WeatherDisplay:10.37,2013-11-21 15:23:00,
2013-11-21 09:28:00,82.8,77.1,30.00,East,98,15.0,15.0,83,0.00,CLR,,0.01,WeatherDisplay:10.37,2013-11-21 15:28:00,
2013-11-21 09:33:00,82.8,76.7,30.00,ESE,107,14.0,14.0,82,0.00,CLR,,0.01,WeatherDisplay:10.37,2013-11-21 15:33:00,
2013-11-21 09:38:00,82.9,76.8,30.00,East,98,17.3,17.3,82,0.00,CLR,,0.01,WeatherDisplay:10.37,2013-11-21 15:38:00,
2013-11-21 09:43:00,83.0,76.9,30.00,East,92,17.3,17.3,82,0.00,CLR,,0.01,WeatherDisplay:10.37,2013-11-21 15:43:00,
2013-11-21 09:48:00,82.9,77.2,30.00,East,90,16.1,16.1,83,0.00,CLR,,0.01,WeatherDisplay:10.37,2013-11-21 15:48:00,
2013-11-21 09:53:00,82.8,76.4,30.00,East,96,17.3,17.3,81,0.00,CLR,,0.01,WeatherDisplay:10.37,2013-11-21 15:53:00,
2013-11-21 09:58:00,82.7,77.7,30.00,ESE,115,19.6,19.6,85,0.00,CLR,,0.01,WeatherDisplay:10.37,2013-11-21 15:58:00,
2013-11-21 10:03:00,82.2,76.5,30.00,ESE,105,13.8,14.2,83,0.00,CLR,,0.01,WeatherDisplay:10.37,2013-11-21 16:03:00,
2013-11-21 10:08:00,82.4,76.7,30.00,ESE,122,18.4,18.4,83,0.00,CLR,,0.01,WeatherDisplay:10.37,2013-11-21 16:08:00,
2013-11-21 10:13:00,82.5,77.2,30.00,ESE,112,19.6,19.6,84,0.00,CLR,,0.01,WeatherDisplay:10.37,2013-11-21 16:13:00,
2013-11-21 10:18:00,82.1,77.1,30.00,East,100,21.9,21.9,85,0.00,,,0.01,WeatherDisplay:10.37,2013-11-21 16:18:00,
2013-11-21 10:23:00,81.8,76.5,30.00,East,101,22.0,22.0,84,0.00,,,0.01,WeatherDisplay:10.37,2013-11-21 16:23:00,
2013-11-21 10:28:00,81.7,76.4,29.99,East,94,20.7,20.7,84,0.00,,,0.01,WeatherDisplay:10.37,2013-11-21 16:28:00,
2013-11-21 10:33:00,81.8,76.5,29.99,East,98,19.6,19.6,84,0.00,,,0.01,WeatherDisplay:10.37,2013-11-21 16:33:00,
2013-11-21 10:38:00,81.8,76.5,29.99,East,100,18.4,18.4,84,0.00,CLR,,0.01,WeatherDisplay:10.37,2013-11-21 16:38:00,
2013-11-21 10:43:00,81.8,76.1,29.99,East,98,18.4,18.4,83,0.00,,,0.01,WeatherDisplay:10.37,2013-11-21 16:43:00,
2013-11-21 10:48:00,81.8,76.1,29.99,East,97,16.1,16.1,83,0.00,CLR,,0.01,WeatherDisplay:10.37,2013-11-21 16:48:00,
2013-11-21 10:54:00,82.2,76.9,29.98,East,100,13.8,13.8,84,0.00,CLR,,0.01,WeatherDisplay:10.37,2013-11-21 16:54:00,
2013-11-21 10:59:00,82.0,76.3,29.98,East,98,15.0,15.0,83,0.00,CLR,,0.01,WeatherDisplay:10.37,2013-11-21 16:59:00,
2013-11-21 11:04:00,82.1,76.4,29.98,ESE,111,15.0,15.0,83,0.00,CLR,,0.01,WeatherDisplay:10.37,2013-11-21 17:04:00,
2013-11-21 11:09:00,82.1,76.4,29.98,ESE,106,13.8,13.8,83,0.00,CLR,,0.01,WeatherDisplay:10.37,2013-11-21 17:09:00,
2013-11-21 11:14:00,82.3,77.0,29.98,ESE,104,14.0,14.0,84,0.00,CLR,,0.01,WeatherDisplay:10.37,2013-11-21 17:14:00,
2013-11-21 11:19:00,82.1,76.8,29.98,ESE,102,12.7,12.7,84,0.00,CLR,,0.01,WeatherDisplay:10.37,2013-11-21 17:19:00,
2013-11-21 11:24:00,82.2,76.9,29.98,ESE,103,13.8,13.8,84,0.00,CLR,,0.01,WeatherDisplay:10.37,2013-11-21 17:24:00,
2013-11-21 11:29:00,82.4,77.1,29.97,ESE,103,12.7,12.7,84,0.00,CLR,,0.01,WeatherDisplay:10.37,2013-11-21 17:29:00,
2013-11-21 11:34:00,82.4,77.1,29.97,ESE,110,13.8,13.8,84,0.00,CLR,,0.01,WeatherDisplay:10.37,2013-11-21 17:34:00,
2013-11-21 11:39:00,82.5,76.8,29.97,ESE,102,12.7,12.7,83,0.00,CLR,,0.01,WeatherDisplay:10.37,2013-11-21 17:39:00,
2013-11-21 11:44:00,82.6,76.9,29.97,ESE,105,17.3,17.3,83,0.00,CLR,,0.01,WeatherDisplay:10.37,2013-11-21 17:44:00,
2013-11-21 11:49:00,82.6,76.9,29.97,East,96,15.0,15.0,83,0.00,CLR,,0.01,WeatherDisplay:10.37,2013-11-21 17:49:00,
2013-11-21 11:54:00,82.5,76.8,29.96,East,96,15.0,15.0,83,0.00,CLR,,0.01,WeatherDisplay:10.37,2013-11-21 17:54:00,
2013-11-21 11:59:00,82.7,77.4,29.96,East,93,12.7,12.7,84,0.00,CLR,,0.01,WeatherDisplay:10.37,2013-11-21 17:59:00,
2013-11-21 12:04:00,82.5,77.2,29.96,ESE,103,14.0,14.0,84,0.00,CLR,,0.01,WeatherDisplay:10.37,2013-11-21 18:04:00,
2013-11-21 12:09:00,82.8,77.1,29.96,ESE,102,15.0,15.0,83,0.00,CLR,,0.01,WeatherDisplay:10.37,2013-11-21 18:09:00,
2013-11-21 12:14:00,82.9,77.2,29.95,East,96,12.7,12.7,83,0.00,CLR,,0.01,WeatherDisplay:10.37,2013-11-21 18:14:00,
2013-11-21 12:19:00,82.8,76.4,29.95,East,100,16.1,16.1,81,0.00,CLR,,0.01,WeatherDisplay:10.37,2013-11-21 18:19:00,
2013-11-21 12:24:00,82.9,76.1,29.95,ESE,102,15.0,15.0,80,0.00,CLR,,0.01,WeatherDisplay:10.37,2013-11-21 18:24:00,
2013-11-21 12:29:00,82.9,76.1,29.95,East,100,13.8,13.8,80,0.00,CLR,,0.01,WeatherDisplay:10.37,2013-11-21 18:29:00,
2013-11-21 12:34:00,83.0,75.8,29.95,East,98,15.0,15.0,79,0.00,CLR,,0.01,WeatherDisplay:10.37,2013-11-21 18:34:00,
2013-11-21 12:39:00,83.2,76.8,29.95,ESE,104,15.0,15.0,81,0.00,CLR,,0.01,WeatherDisplay:10.37,2013-11-21 18:39:00,
2013-11-21 12:44:00,83.1,76.3,29.94,ESE,115,13.8,13.8,80,0.00,CLR,,0.01,WeatherDisplay:10.37,2013-11-21 18:44:00,
2013-11-21 12:49:00,83.1,76.3,29.94,East,100,18.4,18.4,80,0.00,CLR,,0.01,WeatherDisplay:10.37,2013-11-21 18:49:00,
2013-11-21 12:54:00,82.9,75.7,29.94,ESE,106,15.0,15.0,79,0.00,CLR,,0.01,WeatherDisplay:10.37,2013-11-21 18:54:00,
2013-11-21 12:59:00,82.9,75.7,29.94,ESE,102,13.8,13.8,79,0.00,CLR,,0.01,WeatherDisplay:10.37,2013-11-21 18:59:00,
2013-11-21 13:04:00,82.9,75.3,29.94,ESE,110,17.3,17.3,78,0.00,CLR,,0.01,WeatherDisplay:10.37,2013-11-21 19:04:00,
2013-11-21 13:09:00,83.0,75.8,29.94,East,100,13.8,13.8,79,0.00,CLR,,0.01,WeatherDisplay:10.37,2013-11-21 19:09:00,
2013-11-21 13:14:00,82.9,75.7,29.94,ESE,115,13.8,13.8,79,0.00,CLR,,0.01,WeatherDisplay:10.37,2013-11-21 19:14:00,
2013-11-21 13:19:00,83.0,76.2,29.94,ESE,107,14.0,14.0,80,0.00,CLR,,0.01,WeatherDisplay:10.37,2013-11-21 19:19:00,
2013-11-21 13:24:00,83.1,76.7,29.93,ESE,111,13.0,13.0,81,0.00,CLR,,0.01,WeatherDisplay:10.37,2013-11-21 19:24:00,
2013-11-21 13:29:00,82.9,75.3,29.93,ESE,104,17.3,17.3,78,0.00,CLR,,0.01,WeatherDisplay:10.37,2013-11-21 19:29:00,
2013-11-21 13:34:00,83.0,75.8,29.93,ESE,117,15.0,15.0,79,0.00,CLR,,0.01,WeatherDisplay:10.37,2013-11-21 19:34:00,
2013-11-21 13:39:00,83.2,76.0,29.93,ESE,107,15.0,15.0,79,0.00,CLR,,0.01,WeatherDisplay:10.37,2013-11-21 19:39:00,
2013-11-21 13:44:00,83.2,76.4,29.93,ESE,106,11.5,11.5,80,0.00,CLR,,0.01,WeatherDisplay:10.37,2013-11-21 19:44:00,
2013-11-21 13:49:00,83.1,75.9,29.93,East,100,12.7,12.7,79,0.00,CLR,,0.01,WeatherDisplay:10.37,2013-11-21 19:49:00,
2013-11-21 13:54:00,83.0,75.0,29.93,ESE,107,13.0,13.0,77,0.00,CLR,,0.01,WeatherDisplay:10.37,2013-11-21 19:54:00,
2013-11-21 13:59:00,83.1,75.5,29.93,ESE,115,11.5,11.5,78,0.00,CLR,,0.01,WeatherDisplay:10.37,2013-11-21 19:59:00,
2013-11-21 14:04:00,83.1,75.1,29.93,ESE,105,14.0,14.0,77,0.00,CLR,,0.01,WeatherDisplay:10.37,2013-11-21 20:04:00,
2013-11-21 14:09:00,83.1,75.1,29.93,ESE,109,12.7,12.7,77,0.00,CLR,,0.01,WeatherDisplay:10.37,2013-11-21 20:09:00,
2013-11-21 14:14:00,83.0,75.4,29.93,ESE,110,11.5,11.5,78,0.00,CLR,,0.01,WeatherDisplay:10.37,2013-11-21 20:14:00,
2013-11-21 14:19:00,83.2,76.0,29.93,East,100,12.7,12.7,79,0.00,CLR,,0.01,WeatherDisplay:10.37,2013-11-21 20:19:00,
2013-11-21 14:24:00,83.3,76.1,29.92,ESE,109,11.5,11.5,79,0.00,CLR,,0.01,WeatherDisplay:10.37,2013-11-21 20:24:00,
2013-11-21 14:29:00,83.0,75.0,29.92,ESE,110,12.7,12.7,77,0.00,CLR,,0.01,WeatherDisplay:10.37,2013-11-21 20:29:00,
2013-11-21 14:34:00,83.0,75.4,29.92,ESE,106,12.0,12.0,78,0.00,CLR,,0.01,WeatherDisplay:10.37,2013-11-21 20:34:00,
2013-11-21 14:39:00,83.1,75.9,29.92,ESE,115,12.7,12.7,79,0.00,CLR,,0.01,WeatherDisplay:10.37,2013-11-21 20:39:00,
2013-11-21 14:44:00,83.1,75.5,29.92,ESE,110,11.5,11.5,78,0.00,CLR,,0.01,WeatherDisplay:10.37,2013-11-21 20:44:00,
2013-11-21 14:49:00,83.0,75.4,29.92,ESE,106,13.8,13.8,78,0.00,CLR,,0.01,WeatherDisplay:10.37,2013-11-21 20:49:00,
2013-11-21 14:54:00,83.0,75.0,29.91,ESE,108,11.5,11.5,77,0.00,CLR,,0.01,WeatherDisplay:10.37,2013-11-21 20:54:00,
2013-11-21 14:59:00,83.0,75.8,29.91,ESE,105,12.0,12.0,79,0.00,CLR,,0.01,WeatherDisplay:10.37,2013-11-21 20:59:00,
2013-11-21 15:04:00,83.0,75.4,29.91,ESE,110,14.0,14.0,78,0.00,CLR,,0.01,WeatherDisplay:10.37,2013-11-21 21:04:00,
2013-11-21 15:09:00,83.0,75.8,29.91,ESE,104,11.5,11.5,79,0.00,CLR,,0.01,WeatherDisplay:10.37,2013-11-21 21:09:00,
2013-11-21 15:14:00,83.0,75.8,29.91,ESE,116,11.5,11.5,79,0.00,CLR,,0.01,WeatherDisplay:10.37,2013-11-21 21:14:00,
2013-11-21 15:19:00,83.0,75.8,29.91,ESE,108,11.5,11.5,79,0.00,CLR,,0.01,WeatherDisplay:10.37,2013-11-21 21:19:00,
2013-11-21 15:24:00,82.8,75.2,29.91,ESE,104,12.7,12.7,78,0.00,CLR,,0.01,WeatherDisplay:10.37,2013-11-21 21:24:00,
2013-11-21 15:29:00,82.9,75.3,29.91,ESE,110,12.7,12.7,78,0.00,CLR,,0.01,WeatherDisplay:10.37,2013-11-21 21:29:00,
2013-11-21 15:34:00,83.0,75.0,29.91,ESE,108,12.7,12.7,77,0.00,CLR,,0.01,WeatherDisplay:10.37,2013-11-21 21:34:00,
2013-11-21 15:39:00,83.1,75.5,29.91,ESE,104,11.5,11.5,78,0.00,CLR,,0.01,WeatherDisplay:10.37,2013-11-21 21:39:00,
2013-11-21 15:45:00,83.0,76.2,29.91,ESE,119,8.1,8.1,80,0.00,CLR,,0.01,WeatherDisplay:10.37,2013-11-21 21:45:00,
2013-11-21 15:50:00,82.9,75.7,29.91,ESE,108,10.4,10.4,79,0.00,CLR,,0.01,WeatherDisplay:10.37,2013-11-21 21:50:00,
2013-11-21 15:55:00,82.9,75.3,29.91,ESE,113,11.5,11.5,78,0.00,CLR,,0.01,WeatherDisplay:10.37,2013-11-21 21:55:00,
2013-11-21 16:00:00,82.9,75.3,29.91,ESE,104,11.5,11.5,78,0.00,CLR,,0.01,WeatherDisplay:10.37,2013-11-21 22:00:00,
2013-11-21 16:05:00,83.0,75.8,29.92,ESE,107,10.4,10.4,79,0.00,CLR,,0.01,WeatherDisplay:10.37,2013-11-21 22:05:00,
2013-11-21 16:10:00,82.9,75.7,29.92,ESE,105,11.5,11.5,79,0.00,CLR,,0.01,WeatherDisplay:10.37,2013-11-21 22:10:00,
2013-11-21 16:15:00,83.0,75.8,29.92,ESE,102,10.4,10.4,79,0.00,CLR,,0.01,WeatherDisplay:10.37,2013-11-21 22:15:00,
2013-11-21 16:20:00,83.0,75.8,29.92,ESE,104,10.0,10.0,79,0.00,CLR,,0.01,WeatherDisplay:10.37,2013-11-21 22:20:00,
2013-11-21 16:25:00,83.0,75.8,29.92,ESE,104,8.1,8.1,79,0.00,CLR,,0.01,WeatherDisplay:10.37,2013-11-21 22:25:00,
2013-11-21 16:30:00,83.0,75.8,29.92,ESE,103,10.4,10.4,79,0.00,CLR,,0.01,WeatherDisplay:10.37,2013-11-21 22:30:00,
2013-11-21 16:35:00,82.9,75.7,29.92,East,100,10.4,10.4,79,0.00,CLR,,0.01,WeatherDisplay:10.37,2013-11-21 22:35:00,
2013-11-21 16:40:00,82.8,75.2,29.92,East,99,8.0,10.0,78,0.00,CLR,,0.01,WeatherDisplay:10.37,2013-11-21 22:40:00,
2013-11-21 16:45:00,83.0,75.8,29.92,East,96,8.0,10.0,79,0.00,CLR,,0.01,WeatherDisplay:10.37,2013-11-21 22:45:00,
2013-11-21 16:50:00,82.9,75.7,29.92,East,94,10.4,10.4,79,0.00,CLR,,0.01,WeatherDisplay:10.37,2013-11-21 22:50:00,
2013-11-21 16:55:00,82.9,75.7,29.92,East,95,8.0,10.0,79,0.00,CLR,,0.01,WeatherDisplay:10.37,2013-11-21 22:55:00,
2013-11-21 17:00:00,82.9,76.1,29.93,East,97,9.0,12.0,80,0.00,CLR,,0.01,WeatherDisplay:10.37,2013-11-21 23:00:00,
2013-11-21 17:05:00,82.9,76.1,29.93,East,97,10.4,10.4,80,0.00,CLR,,0.01,WeatherDisplay:10.37,2013-11-21 23:05:00,
2013-11-21 17:10:00,82.9,75.7,29.93,East,97,7.0,12.0,79,0.00,CLR,,0.01,WeatherDisplay:10.37,2013-11-21 23:10:00,
2013-11-21 17:15:00,82.9,75.7,29.93,East,96,8.0,12.0,79,0.00,CLR,,0.01,WeatherDisplay:10.37,2013-11-21 23:15:00,
2013-11-21 17:20:00,82.8,75.6,29.93,ESE,102,10.4,10.4,79,0.00,CLR,,0.01,WeatherDisplay:10.37,2013-11-21 23:20:00,
2013-11-21 17:25:00,82.7,75.6,29.93,East,101,7.0,10.0,79,0.00,CLR,,0.01,WeatherDisplay:10.37,2013-11-21 23:25:00,
2013-11-21 17:30:00,82.8,76.0,29.93,East,95,8.1,8.1,80,0.00,CLR,,0.01,WeatherDisplay:10.37,2013-11-21 23:30:00,
2013-11-21 17:35:00,82.8,76.0,29.93,East,94,8.1,8.1,80,0.00,CLR,,0.01,WeatherDisplay:10.37,2013-11-21 23:35:00,
2013-11-21 17:40:00,82.8,76.0,29.93,East,95,8.0,10.0,80,0.00,CLR,,0.01,WeatherDisplay:10.37,2013-11-21 23:40:00,
2013-11-21 17:45:00,82.9,76.5,29.94,East,95,7.0,8.0,81,0.00,CLR,,0.01,WeatherDisplay:10.37,2013-11-21 23:45:00,
2013-11-21 17:50:00,82.8,76.4,29.94,East,96,8.0,12.0,81,0.00,CLR,,0.01,WeatherDisplay:10.37,2013-11-21 23:50:00,
2013-11-21 17:55:00,82.8,76.0,29.94,East,96,6.0,6.0,80,0.00,CLR,,0.01,WeatherDisplay:10.37,2013-11-21 23:55:00,
2013-11-21 18:00:00,82.8,76.4,29.94,East,87,10.0,10.0,81,0.00,CLR,,0.01,WeatherDisplay:10.37,2013-11-22 00:00:00,
2013-11-21 18:05:00,82.9,76.8,29.94,East,89,8.0,10.0,82,0.00,CLR,,0.01,WeatherDisplay:10.37,2013-11-22 00:05:00,
2013-11-21 18:10:00,82.8,76.0,29.94,East,86,11.5,11.5,80,0.00,CLR,,0.01,WeatherDisplay:10.37,2013-11-22 00:10:00,
2013-11-21 18:15:00,82.8,76.0,29.94,East,85,10.4,10.4,80,0.00,CLR,,0.01,WeatherDisplay:10.37,2013-11-22 00:15:00,
2013-11-21 18:20:00,82.8,76.4,29.95,East,86,11.5,11.5,81,0.00,CLR,,0.01,WeatherDisplay:10.37,2013-11-22 00:20:00,
2013-11-21 18:25:00,82.8,76.0,29.95,East,79,10.4,10.4,80,0.00,CLR,,0.01,WeatherDisplay:10.37,2013-11-22 00:25:00,
2013-11-21 18:30:00,82.9,76.1,29.95,East,81,9.2,9.2,80,0.00,CLR,,0.01,WeatherDisplay:10.37,2013-11-22 00:30:00,
2013-11-21 18:35:00,82.8,76.0,29.95,East,81,9.2,9.2,80,0.00,CLR,,0.01,WeatherDisplay:10.37,2013-11-22 00:35:00,
2013-11-21 18:40:00,83.0,77.0,29.95,East,79,10.0,12.0,82,0.00,CLR,,0.01,WeatherDisplay:10.37,2013-11-22 00:40:00,
2013-11-21 18:45:00,82.7,76.6,29.95,ENE,75,10.0,12.0,82,0.00,CLR,,0.01,WeatherDisplay:10.37,2013-11-22 00:45:00,
2013-11-21 18:50:00,82.7,77.0,29.96,ENE,73,11.0,11.0,83,0.00,CLR,,0.01,WeatherDisplay:10.37,2013-11-22 00:50:00,
2013-11-21 18:55:00,82.6,76.9,29.96,East,82,11.5,11.5,83,0.00,CLR,,0.01,WeatherDisplay:10.37,2013-11-22 00:55:00,
2013-11-21 19:00:00,82.6,76.5,29.96,East,81,10.0,12.0,82,0.00,CLR,,0.01,WeatherDisplay:10.37,2013-11-22 01:00:00,
2013-11-21 19:05:00,82.6,76.6,29.96,East,88,14.0,17.0,82,0.00,CLR,,0.01,WeatherDisplay:10.37,2013-11-22 01:05:00,
2013-11-21 19:10:00,82.2,76.2,29.96,East,94,8.1,8.1,82,0.00,CLR,,0.01,WeatherDisplay:10.37,2013-11-22 01:10:00,
2013-11-21 19:15:00,82.3,76.6,29.96,East,94,8.1,8.1,83,0.00,CLR,,0.01,WeatherDisplay:10.37,2013-11-22 01:15:00,
2013-11-21 19:20:00,82.4,77.1,29.97,East,98,8.1,8.1,84,0.00,CLR,,0.01,WeatherDisplay:10.37,2013-11-22 01:20:00,
2013-11-21 19:25:00,82.5,76.4,29.97,East,94,13.0,13.0,82,0.00,CLR,,0.01,WeatherDisplay:10.37,2013-11-22 01:25:00,
2013-11-21 19:30:00,83.0,76.9,29.97,East,93,13.0,15.0,82,0.00,CLR,,0.01,WeatherDisplay:10.37,2013-11-22 01:30:00,
2013-11-21 19:35:00,83.0,76.2,29.97,East,99,15.0,15.0,80,0.00,CLR,,0.01,WeatherDisplay:10.37,2013-11-22 01:35:00,
2013-11-21 19:40:00,83.1,77.4,29.97,East,86,15.0,15.0,83,0.00,CLR,,0.01,WeatherDisplay:10.37,2013-11-22 01:40:00,
2013-11-21 19:45:00,83.0,76.9,29.97,East,88,13.0,17.0,82,0.00,CLR,,0.01,WeatherDisplay:10.37,2013-11-22 01:45:00,
2013-11-21 19:50:00,83.1,76.3,29.98,East,92,17.3,17.3,80,0.00,CLR,,0.01,WeatherDisplay:10.37,2013-11-22 01:50:00,
2013-11-21 19:55:00,83.1,76.3,29.98,East,91,14.0,17.0,80,0.00,CLR,,0.01,WeatherDisplay:10.37,2013-11-22 01:55:00,
2013-11-21 20:00:00,83.2,77.1,29.98,East,93,12.0,16.0,82,0.00,CLR,,0.01,WeatherDisplay:10.37,2013-11-22 02:00:00,
2013-11-21 20:05:00,83.2,76.8,29.98,East,90,14.0,14.0,81,0.00,CLR,,0.01,WeatherDisplay:10.37,2013-11-22 02:05:00,
2013-11-21 20:08:00,83.0,76.6,29.98,East,90,13.8,13.8,81,0.00,CLR,,0.01,WeatherDisplay:10.37,2013-11-22 02:08:00,
2013-11-21 20:09:00,83.0,76.2,29.98,East,90,13.8,13.8,80,0.00,CLR,,0.01,WeatherDisplay:10.37,2013-11-22 02:09:00,
2013-11-21 20:14:00,83.2,76.4,29.98,East,94,14.0,14.0,80,0.00,CLR,,0.01,WeatherDisplay:10.37,2013-11-22 02:14:00,
2013-11-21 20:19:00,83.2,76.0,29.98,East,92,15.0,15.0,79,0.00,CLR,,0.01,WeatherDisplay:10.37,2013-11-22 02:19:00,
2013-11-21 20:24:00,83.1,75.9,29.98,East,87,15.0,15.0,79,0.00,CLR,,0.01,WeatherDisplay:10.37,2013-11-22 02:24:00,
2013-11-21 20:29:00,83.2,76.4,29.98,East,94,14.0,14.0,80,0.00,CLR,,0.01,WeatherDisplay:10.37,2013-11-22 02:29:00,
2013-11-21 20:34:00,83.1,75.9,29.98,East,90,13.8,13.8,79,0.00,CLR,,0.01,WeatherDisplay:10.37,2013-11-22 02:34:00,
2013-11-21 20:39:00,83.1,76.3,29.98,East,83,14.0,14.0,80,0.00,CLR,,0.01,WeatherDisplay:10.37,2013-11-22 02:39:00,
2013-11-21 20:44:00,83.1,76.3,29.98,East,85,13.8,13.8,80,0.00,CLR,,0.01,WeatherDisplay:10.37,2013-11-22 02:44:00,
2013-11-21 20:49:00,83.1,76.3,29.98,East,85,12.7,12.7,80,0.00,CLR,,0.01,WeatherDisplay:10.37,2013-11-22 02:49:00,
2013-11-21 20:54:00,83.1,77.0,29.98,East,85,13.8,13.8,82,0.00,CLR,,0.01,WeatherDisplay:10.37,2013-11-22 02:54:00,
2013-11-21 20:59:00,82.9,76.8,29.98,East,85,16.1,16.1,82,0.00,CLR,,0.01,WeatherDisplay:10.37,2013-11-22 02:59:00,
2013-11-21 21:04:00,83.0,76.9,29.98,East,88,12.7,12.7,82,0.00,CLR,,0.01,WeatherDisplay:10.37,2013-11-22 03:04:00,
2013-11-21 21:09:00,82.8,76.4,29.98,East,89,12.7,12.7,81,0.00,CLR,,0.01,WeatherDisplay:10.37,2013-11-22 03:09:00,
2013-11-21 21:14:00,82.9,76.8,29.98,East,94,12.7,12.7,82,0.00,CLR,,0.01,WeatherDisplay:10.37,2013-11-22 03:14:00,
2013-11-21 21:19:00,82.9,76.8,29.98,East,84,11.5,11.5,82,0.00,CLR,,0.01,WeatherDisplay:10.37,2013-11-22 03:19:00,
2013-11-21 21:24:00,82.7,76.6,29.98,East,88,13.8,13.8,82,0.00,CLR,,0.01,WeatherDisplay:10.37,2013-11-22 03:24:00,
2013-11-21 21:29:00,82.8,76.7,29.98,East,85,11.5,11.5,82,0.00,CLR,,0.01,WeatherDisplay:10.37,2013-11-22 03:29:00,
2013-11-21 21:34:00,82.9,77.6,29.98,East,89,11.5,11.5,84,0.00,CLR,,0.01,WeatherDisplay:10.37,2013-11-22 03:34:00,
2013-11-21 21:39:00,82.7,77.4,29.98,East,84,12.0,12.0,84,0.00,CLR,,0.01,WeatherDisplay:10.37,2013-11-22 03:39:00,
2013-11-21 21:44:00,82.9,77.2,29.98,East,83,15.0,15.0,83,0.00,CLR,,0.01,WeatherDisplay:10.37,2013-11-22 03:44:00,
2013-11-21 21:49:00,82.8,76.4,29.99,East,82,16.1,16.1,81,0.00,CLR,,0.01,WeatherDisplay:10.37,2013-11-22 03:49:00,
2013-11-21 21:54:00,83.0,77.3,29.99,East,85,12.7,12.7,83,0.00,CLR,,0.01,WeatherDisplay:10.37,2013-11-22 03:54:00,
2013-11-21 21:59:00,82.8,77.1,29.98,East,87,13.8,13.8,83,0.00,CLR,,0.01,WeatherDisplay:10.37,2013-11-22 03:59:00,
2013-11-21 22:04:00,82.8,76.7,29.99,East,88,14.0,14.0,82,0.00,CLR,,0.01,WeatherDisplay:10.37,2013-11-22 04:04:00,
2013-11-21 22:09:00,82.8,76.7,29.99,East,83,14.0,14.0,82,0.00,CLR,,0.01,WeatherDisplay:10.37,2013-11-22 04:09:00,
2013-11-21 22:14:00,82.8,76.4,29.99,East,83,16.1,16.1,81,0.00,CLR,,0.01,WeatherDisplay:10.37,2013-11-22 04:14:00,
2013-11-21 22:19:00,82.7,76.6,29.98,East,79,13.0,13.0,82,0.00,CLR,,0.01,WeatherDisplay:10.37,2013-11-22 04:19:00,
2013-11-21 22:24:00,82.6,76.2,29.98,ENE,74,13.8,13.8,81,0.00,CLR,,0.01,WeatherDisplay:10.37,2013-11-22 04:24:00,
2013-11-21 22:29:00,82.6,76.2,29.99,ENE,77,13.8,13.8,81,0.00,CLR,,0.01,WeatherDisplay:10.37,2013-11-22 04:29:00,
2013-11-21 22:34:00,82.6,76.2,29.98,ENE,71,12.7,12.7,81,0.00,CLR,,0.01,WeatherDisplay:10.37,2013-11-22 04:34:00,
2013-11-21 22:39:00,82.7,77.0,29.98,ENE,77,12.7,12.7,83,0.00,CLR,,0.01,WeatherDisplay:10.37,2013-11-22 04:39:00,
2013-11-21 22:44:00,82.6,76.5,29.98,ENE,73,12.7,12.7,82,0.00,CLR,,0.01,WeatherDisplay:10.37,2013-11-22 04:44:00,
2013-11-21 22:49:00,82.5,76.1,29.97,ENE,74,12.7,12.7,81,0.00,CLR,,0.01,WeatherDisplay:10.37,2013-11-22 04:49:00,
2013-11-21 22:54:00,82.5,76.1,29.97,ENE,63,13.8,13.8,81,0.00,CLR,,0.01,WeatherDisplay:10.37,2013-11-22 04:54:00,
2013-11-21 22:59:00,82.6,76.2,29.98,East,79,13.8,13.8,81,0.00,CLR,,0.01,WeatherDisplay:10.37,2013-11-22 04:59:00,
2013-11-21 23:01:00,82.6,76.2,29.98,ENE,77,13.0,13.0,81,0.00,CLR,,0.01,WeatherDisplay:10.37,2013-11-22 05:01:00,
2013-11-21 23:02:00,82.5,76.1,29.97,ENE,70,12.7,12.7,81,0.00,CLR,,0.01,WeatherDisplay:10.37,2013-11-22 05:02:00,
2013-11-21 23:07:00,82.5,76.4,29.97,ENE,75,13.8,13.8,82,0.00,CLR,,0.01,WeatherDisplay:10.37,2013-11-22 05:07:00,
2013-11-21 23:12:00,82.5,76.4,29.97,East,81,16.1,16.1,82,0.00,CLR,,0.01,WeatherDisplay:10.37,2013-11-22 05:12:00,
2013-11-21 23:17:00,82.5,76.8,29.97,ENE,75,12.0,12.0,83,0.00,CLR,,0.01,WeatherDisplay:10.37,2013-11-22 05:17:00,
2013-11-21 23:22:00,82.5,76.8,29.97,East,83,12.0,12.0,83,0.00,CLR,,0.01,WeatherDisplay:10.37,2013-11-22 05:22:00,
2013-11-21 23:27:00,82.4,76.3,29.97,ENE,77,12.0,12.0,82,0.00,CLR,,0.01,WeatherDisplay:10.37,2013-11-22 05:27:00,
2013-11-21 23:32:00,82.5,76.8,29.97,East,79,12.0,12.0,83,0.00,CLR,,0.01,WeatherDisplay:10.37,2013-11-22 05:32:00,
2013-11-21 23:37:00,82.4,76.7,29.97,ENE,73,11.5,11.5,83,0.00,CLR,,0.01,WeatherDisplay:10.37,2013-11-22 05:37:00,
2013-11-21 23:42:00,82.4,76.7,29.96,ENE,71,12.0,12.0,83,0.00,CLR,,0.01,WeatherDisplay:10.37,2013-11-22 05:42:00,
2013-11-21 23:47:00,82.3,76.3,29.96,ENE,73,11.5,11.5,82,0.00,CLR,,0.01,WeatherDisplay:10.37,2013-11-22 05:47:00,
2013-11-21 23:52:00,82.3,76.6,29.96,ENE,77,11.5,11.5,83,0.00,CLR,,0.01,WeatherDisplay:10.37,2013-11-22 05:52:00,
2013-11-21 23:57:00,82.3,76.6,29.96,East,80,11.5,11.5,83,0.00,CLR,,0.01,WeatherDisplay:10.37,2013-11-22 05:57:00,